Probability
0 0 0 0 0 0 0 0 0 0 0 1 2 2 2 2 2 1 1 2 5 8 9 10 8 7 6 6 9 12 11 8 5 4 4 3 2 3 3 4 5 4 3 2 3 5 6 4 3
0 0 0 0 0 0 0 0 0 0 0 0 1 2 3 3 3 2 2 4 7 10 11 11 10 8 7 7 7 9 9 7 5 4 5 4 3 2 3 3 4 4 3 2 2 5 6 4 3
0 0 0 0 0 0 0 0 0 0 0 0 1 3 3 3 2 2 3 6 9 11 12 12 10 9 8 6 5 5 5 5 4 5 6 6 4 3 2 3 5 5 4 3 3 4 5 5 4
0 0 0 0 0 0 0 0 0 0 0 1 3 3 2 1 1 1 5 9 12 12 12 11 9 8 6 5 4 3 3 4 4 5 6 6 5 4 2 2 5 6 6 4 3 2 4 5 5
0 0 0 0 0 0 0 0 0 0 0 0 2 2 1 0 1 2 6 10 12 12 10 9 9 7 5 4 4 4 4 3 3 4 4 5 4 4 3 2 3 5 5 3 2 2 3 4 4
0 0 0 0 0 0 0 0 0 0 0 0 0 1 0 0 2 4 7 9 11 11 9 9 9 8 5 4 4 5 4 3 3 3 3 4 3 3 2 2 3 4 3 2 2 3 3 3 3
0 0 0 0 0 0 0 0 0 0 0 0 0 1 0 0 2 5 7 9 10 10 9 9 9 8 6 5 5 5 4 3 2 1 2 3 3 3 2 2 3 4 3 3 3 3 3 3 3
0 0 0 0 0 0 0 0 0 0 0 0 0 0 1 2 4 6 8 9 9 9 9 10 9 8 6 6 6 5 4 4 3 2 1 2 2 2 1 1 2 4 4 4 4 3 2 2 1
0 0 0 0 0 1 1 0 0 0 0 0 0 0 2 6 8 7 8 9 8 7 7 8 8 6 6 6 6 5 5 5 5 4 2 1 1 0 0 0 1 3 3 4 3 1 0 0 0
0 0 0 0 1 2 2 1 0 0 0 0 0 2 8 13 11 8 7 7 7 7 6 6 5 5 5 5 5 5 6 7 7 6 4 2 1 0 0 0 1 2 2 3 2 1 0 1 1
0 0 0 0 1 3 3 2 1 1 1 0 1 6 15 18 14 8 7 7 7 6 6 6 6 6 6 6 6 7 7 8 9 7 6 4 2 0 0 0 1 1 2 2 2 1 1 1 2
0 0 0 1 2 3 3 3 2 1 1 1 3 9 17 20 14 8 7 8 8 8 7 7 8 10 9 8 9 9 9 10 9 7 5 4 3 1 1 1 2 2 2 2 3 3 1 1 1
0 0 1 2 3 3 3 3 2 1 1 3 5 9 13 15 13 9 7 6 8 10 9 8 9 11 11 11 12 12 10 10 9 7 5 5 5 4 3 3 3 3 3 3 3 4 3 1 0
0 0 1 2 3 3 3 2 1 1 1 4 5 7 9 10 10 9 6 5 7 10 11 9 9 10 11 12 14 13 10 9 9 8 7 7 8 7 7 6 5 5 4 3 3 4 4 2 1
0 0 1 2 2 2 2 1 0 1 3 5 5 6 6 6 7 8 7 7 9 10 11 10 9 9 9 10 13 12 9 8 9 9 9 9 9 9 8 7 6 6 4 3 3 3 3 2 1
0 0 0 1 1 1 1 0 0 1 4 6 6 5 4 3 4 6 7 9 12 11 10 8 7 6 5 7 8 8 7 8 8 8 8 8 9 9 9 7 6 5 3 2 3 3 3 2 2
0 0 0 1 1 0 0 0 0 1 4 6 6 5 4 3 4 5 7 10 12 12 10 7 6 6 6 7 6 6 7 7 7 6 6 6 8 9 9 6 5 4 3 2 3 3 3 2 2
0 0 0 1 2 1 0 0 0 1 3 4 4 4 5 6 7 8 10 9 10 12 11 10 9 9 9 9 8 7 7 6 5 4 4 5 6 7 7 5 3 3 3 3 3 3 3 3 3
0 0 0 2 2 1 0 0 0 2 4 5 5 6 8 11 12 12 12 11 10 11 12 12 12 11 10 10 9 8 7 5 4 3 3 4 4 4 4 2 1 1 2 3 3 3 3 3 3
0 0 1 2 3 2 1 0 0 2 4 6 9 11 12 13 15 15 15 14 12 12 13 14 13 11 9 9 9 9 7 4 3 3 3 3 3 2 1 0 0 0 1 1 2 3 3 3 3
0 0 1 2 3 2 1 0 0 1 2 7 12 14 13 13 15 17 16 15 14 14 15 15 13 11 10 10 9 9 7 4 3 3 3 2 1 1 0 0 0 0 0 0 1 1 2 3 3
0 0 1 2 3 2 0 0 0 0 0 4 11 14 13 14 16 18 16 15 14 14 14 14 13 12 11 10 8 7 7 5 4 3 1 1 0 0 0 0 0 0 0 0 0 0 1 2 2
0 0 1 2 3 2 1 0 0 0 0 2 6 10 11 12 14 15 15 14 12 11 11 12 12 12 12 10 8 7 6 6 4 1 0 0 0 0 0 0 0 0 0 0 0 0 0 1 1
0 0 0 1 2 2 1 0 0 0 0 1 3 6 8 9 10 11 12 12 12 10 10 10 11 12 12 10 8 7 6 6 3 1 0 1 1 1 1 1 1 0 0 0 0 0 0 0 0
0 0 0 0 1 1 1 0 0 0 0 1 3 6 7 7 8 8 9 11 11 11 10 10 11 11 11 10 8 6 6 5 4 2 1 1 2 2 3 3 2 0 0 0 1 1 2 1 1
0 0 0 0 0 0 0 0 0 0 0 2 4 7 8 7 6 6 7 9 10 10 11 12 12 10 10 9 8 6 6 5 4 3 2 1 1 2 3 3 2 1 1 2 3 3 4 3 3
0 0 0 0 0 0 0 0 0 1 1 2 5 7 8 8 5 4 6 8 9 10 12 14 13 11 10 9 7 6 6 6 5 3 2 1 1 1 1 2 3 4 4 4 5 5 5 5 4
0 0 0 0 0 0 0 0 0 1 2 3 4 5 7 8 5 4 6 7 9 11 14 16 15 12 10 9 8 8 8 7 6 5 4 3 2 1 1 3 4 5 5 4 4 5 5 5 6
0 0 0 0 0 0 0 0 1 3 4 3 3 4 5 6 5 4 6 8 10 12 13 15 14 12 10 9 9 10 11 9 8 8 8 7 3 1 2 2 3 4 4 3 3 3 3 5 7
0 0 0 0 0 0 0 0 1 4 5 4 3 3 4 5 6 5 6 8 11 11 11 12 12 11 10 10 11 11 12 11 10 10 11 8 4 2 2 2 2 3 3 2 3 3 2 4 6
Wind_Speed
4 3 2 2 5 5 2 3 1 2 2 1 2 4 5 3 2 2 1 7 9 8 7 9 11 10 9 9 9 9 9 9 9 9 9 9 8 8 7 6 6 6 7 7 8 8 9 9 10
3 2 2 4 5 3 3 3 1 1 1 1 3 4 4 2 2 5 4 6 10 9 7 8 11 10 10 9 9 9 9 9 9 9 8 8 8 7 7 6 7 7 7 7 7 8 8 8 9
2 1 4 5 3 2 2 2 1 0 1 1 2 3 3 2 3 4 5 10 9 7 6 8 12 11 10 9 9 8 9 8 8 8 8 7 7 7 6 7 8 8 7 7 7 7 7 7 8
2 3 5 5 0 3 3 3 1 1 2 3 3 3 2 2 3 4 9 11 10 7 5 7 12 11 10 9 8 8 8 8 8 8 7 7 7 6 6 6 7 7 6 6 6 6 6 7 7
3 4 5 3 3 3 3 3 2 2 1 2 4 3 2 3 5 9 10 10 9 7 5 6 11 10 10 9 8 8 8 7 7 7 7 6 6 6 5 5 5 6 5 5 5 6 5 6 6
5 5 4 1 4 4 3 2 1 2 2 2 4 3 0 2 6 8 9 8 7 7 5 5 10 10 9 9 8 8 7 6 6 6 6 5 5 5 5 4 4 4 4 5 5 5 5 5 5
5 4 3 2 2 3 2 0 2 2 2 2 4 4 0 2 4 7 7 7 6 6 4 3 4 6 8 8 8 7 6 6 6 5 5 4 4 4 4 3 3 3 3 4 4 4 5 4 5
5 5 1 1 2 3 2 1 1 2 2 3 4 6 4 5 7 8 7 6 5 4 4 3 3 3 3 4 7 7 7 6 6 5 4 3 3 3 3 2 2 2 3 3 3 4 4 4 4
4 5 2 4 4 3 1 1 1 1 3 2 2 3 4 11 11 9 6 4 4 5 3 3 3 2 2 2 5 5 6 5 5 3 3 2 1 0 1 2 3 3 2 3 3 3 3 4 3
4 4 7 5 4 3 2 1 1 2 2 1 2 4 9 12 11 10 9 8 7 6 4 3 3 3 2 3 2 2 2 2 2 1 1 1 1 0 1 1 2 2 2 2 3 3 3 3 2
4 6 5 4 4 3 2 1 1 4 3 5 6 9 12 11 9 9 9 8 7 6 5 4 3 3 3 2 2 1 1 1 1 1 1 1 1 1 1 1 1 1 1 1 2 2 2 2 2
4 5 4 3 2 2 2 1 1 4 6 5 7 12 13 12 11 10 10 8 6 6 5 4 4 3 3 2 1 1 1 1 1 1 2 1 1 0 1 1 1 1 1 1 2 2 2 3 3
3 3 3 3 2 2 2 3 3 4 3 4 8 11 12 11 9 7 6 6 6 6 6 5 4 4 3 2 1 2 1 2 2 2 2 2 2 1 0 0 0 1 1 1 2 2 2 2 2
3 2 3 3 1 1 3 2 1 4 4 6 8 9 10 10 9 7 6 6 6 7 7 6 6 5 4 3 2 2 2 1 1 2 2 3 2 2 1 1 1 1 1 1 1 2 2 2 2
0 1 4 2 1 1 3 2 5 4 6 7 7 7 7 7 7 8 9 8 7 7 6 6 6 5 4 3 3 2 1 2 2 2 2 2 3 3 2 2 1 1 1 1 2 2 2 2 1
2 2 2 4 0 1 4 5 7 4 7 6 6 6 6 6 6 6 6 6 6 6 6 5 5 4 4 3 2 1 1 2 1 1 1 2 3 3 2 2 1 1 1 1 2 2 1 1 1
3 1 2 4 1 1 3 6 5 3 6 7 7 7 6 5 5 5 5 5 5 6 5 5 4 4 4 3 2 1 1 2 1 1 1 2 2 3 2 2 2 2 2 1 2 1 2 1 1
3 2 2 4 2 0 2 6 5 3 6 7 7 6 6 7 7 6 5 5 4 4 4 5 4 3 3 2 2 1 1 1 1 1 1 2 2 3 2 2 2 2 2 1 2 2 1 1 1
4 3 3 5 3 1 4 5 6 4 5 6 6 6 7 7 4 4 4 4 4 4 4 5 4 3 3 2 2 2 1 1 1 1 1 1 2 2 2 2 1 2 2 2 3 2 2 1 1
3 2 3 4 2 1 2 4 4 4 6 7 9 9 9 7 5 4 4 4 5 5 5 4 4 4 4 3 3 2 2 1 1 1 1 1 2 2 2 2 2 2 2 2 2 2 2 1 1
4 5 5 4 3 3 1 5 3 2 2 3 5 6 7 9 8 6 5 5 5 5 6 5 5 4 3 3 2 2 2 1 0 0 1 1 2 2 2 2 2 2 2 2 2 2 3 2 1
5 6 5 3 1 3 1 3 7 3 3 4 4 5 6 6 6 6 6 6 6 6 5 5 5 4 3 4 4 4 3 2 2 1 1 1 1 2 2 2 3 3 2 2 2 2 2 3 2
6 3 3 2 3 1 1 2 8 2 4 6 6 7 7 7 7 8 7 7 5 5 5 4 4 4 3 4 4 4 2 1 1 1 1 1 0 1 2 2 2 2 2 2 2 2 2 2 3
4 5 5 5 4 2 4 4 7 5 7 5 5 6 7 7 7 7 5 5 4 4 4 4 4 3 3 4 4 4 4 3 2 1 1 0 0 0 1 1 2 2 2 2 2 2 3 2 2
5 6 3 3 2 6 2 4 9 7 5 6 6 6 6 6 7 7 7 6 5 5 5 4 4 3 3 3 3 3 4 4 4 3 2 1 1 1 1 1 1 1 1 2 2 2 2 2 3
5 9 8 5 5 4 1 6 8 4 3 3 3 3 4 5 6 7 7 7 6 6 5 5 4 3 3 3 3 2 3 3 2 2 2 2 1 2 2 2 1 1 1 2 2 2 2 2 2
6 4 6 7 2 1 4 6 7 1 1 0 1 3 4 5 6 6 6 6 5 5 5 5 5 4 3 3 3 2 2 1 1 2 2 1 1 1 1 2 2 1 1 2 2 2 2 2 1
6 8 6 6 5 4 4 4 5 4 4 2 2 3 4 4 5 5 5 6 5 5 4 4 4 4 3 3 3 2 2 2 2 2 2 1 1 1 1 2 2 1 1 2 2 2 2 2 1
4 4 5 5 5 6 3 7 6 6 5 5 5 5 5 6 5 5 4 4 5 4 4 4 4 3 3 3 2 3 2 2 2 2 2 2 1 1 2 2 2 2 2 1 2 2 2 2 1
4 6 8 6 5 4 4 8 4 3 3 4 3 3 3 4 4 4 4 5 5 4 4 4 4 4 4 4 3 3 2 2 2 1 1 2 2 1 1 2 2 2 2 2 2 2 2 2 1
Wind_Direction
144 125 118 87 56 47 1 293 264 327 355 18 83 105 118 119 156 180 130 137 136 142 150 154 153 148 143 136 130 126 122 119 118 117 115 112 110 107 103 101 109 118 116 117 116 117 119 124 127
135 140 75 61 76 47 307 284 286 264 166 94 64 75 82 76 78 115 133 141 138 143 145 154 155 150 145 140 136 131 127 124 123 121 120 118 113 109 104 96 103 116 117 119 121 120 121 125 133
158 116 80 70 90 165 263 285 222 51 120 100 74 56 85 124 134 152 157 143 135 139 142 160 156 153 148 144 141 137 131 128 125 126 125 123 119 110 105 101 101 109 113 118 123 123 126 130 135
106 51 53 66 26 229 226 255 222 118 37 59 100 71 54 53 147 148 138 139 136 139 145 163 157 156 154 151 146 140 135 132 129 124 127 126 120 114 109 107 106 108 110 114 121 122 127 133 137
64 73 57 32 292 273 254 254 201 121 86 73 99 94 29 16 101 125 136 140 141 142 149 163 158 157 157 156 152 145 141 135 132 127 123 121 120 123 119 111 109 109 110 113 118 124 126 129 135
58 65 79 308 292 293 278 250 158 113 124 100 104 106 359 95 123 136 137 138 142 145 147 158 163 161 161 160 157 153 147 141 138 134 128 124 120 119 118 123 119 113 114 117 120 127 134 137 139
103 96 142 215 285 303 286 308 145 141 147 164 136 118 111 145 144 133 126 124 130 141 145 153 163 165 167 166 164 162 158 149 143 138 134 131 128 128 126 124 120 121 123 126 129 129 130 139 146
124 103 115 239 240 274 296 7 126 147 164 129 129 144 189 181 139 122 113 115 129 140 152 155 160 161 163 170 172 168 166 160 155 152 146 144 140 142 144 142 141 132 128 130 135 140 133 134 132
94 83 200 219 206 247 279 53 353 114 109 109 117 161 162 138 133 127 124 126 146 159 161 160 165 169 163 168 176 171 172 169 165 164 164 153 96 100 144 162 166 154 152 144 132 132 126 112 117
100 148 219 216 202 215 263 194 208 104 106 112 80 80 120 134 144 151 158 166 172 178 182 174 179 178 170 178 161 154 166 165 158 141 149 90 60 58 108 135 150 145 152 140 136 129 109 95 89
154 192 226 239 226 225 240 264 170 145 196 199 171 150 143 147 157 166 174 177 180 178 182 186 184 178 172 171 153 155 152 150 159 158 140 101 75 51 42 33 16 27 58 65 70 83 85 93 100
178 233 226 245 209 200 213 201 161 190 214 192 162 151 153 162 173 180 181 181 173 172 186 186 178 173 178 168 161 164 165 169 182 191 167 142 131 82 53 67 39 43 58 77 77 88 98 101 108
207 253 241 239 262 211 184 195 191 235 221 131 137 146 161 172 182 186 182 177 174 180 186 184 182 182 176 166 176 167 183 191 194 195 192 176 170 171 143 107 81 76 84 97 107 111 114 117 118
226 241 283 294 271 198 165 223 172 239 139 134 151 163 173 178 181 179 179 183 186 189 187 183 190 185 175 181 187 184 186 191 191 198 198 185 176 173 170 161 134 106 102 114 125 132 131 130 134
150 347 330 314 272 211 124 297 234 218 137 148 167 172 178 187 182 190 192 191 193 191 186 189 193 180 181 190 195 185 180 173 195 210 203 188 180 176 172 166 171 166 137 127 116 116 118 129 138
58 62 320 298 328 164 136 246 254 175 153 167 175 178 184 194 195 199 193 190 190 183 184 190 192 179 184 184 183 173 170 176 203 209 200 195 189 178 169 167 180 174 150 141 139 131 119 123 133
37 132 240 294 270 130 160 244 258 171 166 179 184 183 184 188 197 204 194 188 186 182 176 177 178 176 180 170 163 162 167 185 199 193 190 197 190 176 168 176 180 157 145 158 164 135 140 145 138
204 199 237 259 274 120 233 253 266 208 186 192 193 192 185 192 202 194 185 181 177 173 169 173 173 167 156 146 140 135 128 188 175 181 187 186 185 174 166 174 179 154 148 153 146 144 130 140 146
174 183 242 261 265 208 241 255 262 232 200 197 195 196 192 201 193 165 167 168 159 161 167 173 167 162 153 157 165 167 194 214 186 186 179 183 180 173 169 175 163 154 161 169 158 147 133 130 116
186 220 259 290 319 193 265 275 264 225 207 199 194 195 194 187 172 162 156 162 163 171 173 172 172 170 174 177 172 161 160 180 187 187 188 191 184 185 183 174 174 167 152 150 155 151 142 145 136
211 198 217 240 336 10 360 316 296 272 231 219 204 195 191 184 182 175 165 169 164 173 178 177 175 170 172 158 130 110 86 61 61 172 208 211 198 196 185 182 169 170 169 176 181 170 165 170 173
233 219 201 201 129 295 62 280 284 269 263 237 218 199 196 188 180 174 168 171 174 179 169 163 163 161 154 143 146 148 154 173 204 198 209 210 196 196 178 169 165 171 175 181 193 182 175 169 178
211 200 171 172 163 279 311 199 279 294 256 245 225 211 202 190 183 180 179 177 172 165 154 151 150 149 149 155 164 160 154 161 142 136 129 146 188 184 170 162 164 175 179 187 184 171 171 176 181
155 78 60 55 81 246 228 182 268 239 228 234 221 213 206 188 181 178 173 157 147 141 134 138 145 151 153 157 161 162 158 150 147 147 135 154 210 184 164 158 163 173 179 188 186 175 169 180 181
111 96 46 6 12 248 237 196 247 249 235 217 217 217 201 179 175 173 168 163 160 156 153 151 152 154 152 157 168 174 167 163 179 176 165 171 191 216 210 173 169 180 186 182 175 167 169 174 175
169 143 157 187 214 264 254 229 252 259 268 240 205 185 169 168 173 176 174 173 173 170 167 161 158 160 157 167 173 174 169 169 179 166 161 175 199 213 195 174 175 177 168 166 160 154 164 157 170
143 174 163 135 162 236 266 276 297 279 320 327 124 129 160 170 173 173 168 168 171 168 169 166 162 161 163 164 155 153 159 159 148 137 137 140 171 189 169 159 151 154 146 150 149 151 159 148 157
147 146 108 127 156 226 272 262 251 262 250 242 186 171 173 169 173 170 168 166 167 165 161 156 163 166 165 157 157 151 160 159 134 131 136 139 158 145 128 133 136 125 123 140 144 142 146 136 142
117 120 121 130 158 163 226 263 231 225 217 199 200 188 176 175 177 172 163 155 152 149 152 153 154 149 145 151 147 140 134 125 120 133 156 157 148 145 142 147 142 134 123 120 123 123 129 135 125
161 163 146 156 205 179 178 261 275 226 194 174 177 168 163 164 163 155 150 143 144 152 158 156 158 159 166 162 152 151 138 128 130 138 143 135 130 131 142 136 131 130 119 109 113 121 118 128 132